User: anonymous   Login
Location: Keppel Henge
(44.7900°N, 80.9447°W)
Time: 23:33:38
(UTC-05:00)
Language:

N. Korean satellite - Orbit

View from above orbital plane
View from above orbital plane
View from above satellite
View from above satellite

Ground track
Ground track

The orbit data is extracted from the following two-line orbital elements,

1 39026U 12072A   17347.50857723  .00001605  00000-0  63614-4 0  9997
2 39026  97.2162 359.2202 0038133 261.5194  98.1722 15.26185149277331
Epoch (UTC): 13 December 2017 12:12:21
Eccentricity: 0.0038133
inclination: 97.2162°
perigee height: 461 km
apogee height: 513 km
right ascension of ascending node: 359.2202°
argument of perigee: 261.5194°
revolutions per day: 15.26185149
mean anomaly at epoch: 98.1722°
orbit number at epoch: 27733

The dashed part of the orbit path shows where the satellite is in the earth's shadow,  

DLR